Location: Cheadle
(51.0146°N, 113.5417°W)
Time: 22:31:40
(UTC+00:00)

Oscar 19 - Visible Passes

Search period start: 29 November 2023 00:00
Search period end: 09 December 2023 00:00
Orbit: 771 x 789 km, 98.9° (Epoch: 29 November)

Date Brightness Start Highest point End Pass type
(mag) Time Alt. Az. Time Alt. Az. Time Alt. Az.
29 Nov 11.6 11:56:59 10° NNE 12:01:55 45° E 12:06:51 10° S visible
29 Nov 11.3 13:36:31 10° N 13:41:03 32° WNW 13:45:35 10° WSW visible
30 Nov 13.8 01:02:01 10° WSW 01:03:54 12° W 01:05:47 10° WNW visible
30 Nov 12.7 11:25:07 10° NE 11:29:20 25° E 11:33:34 10° SSE visible
30 Nov 10.6 13:03:54 10° N 13:08:55 55° WNW 13:13:56 10° SW visible
01 Dec 13.3 00:27:11 10° SW 00:31:07 22° W 00:35:04 10° NW visible
01 Dec 13.4 10:53:59 10° NE 10:56:36 14° E 10:59:12 10° ESE visible
01 Dec 10.6 12:31:28 10° NNE 12:36:39 84° ESE 12:41:49 10° SSW visible
01 Dec 11.9 14:11:45 10° N 14:15:19 19° NW 14:18:52 10° W visible
02 Dec 11.6 11:59:15 10° NNE 12:04:13 46° E 12:09:11 10° S visible
02 Dec 11.3 13:38:50 10° N 13:43:20 31° WNW 13:47:49 10° WSW visible
03 Dec 13.8 01:04:34 10° WSW 01:06:13 11° W 01:07:52 10° WNW visible
03 Dec 12.6 11:27:21 10° NE 11:31:39 26° E 11:35:55 10° SSE visible
03 Dec 10.7 13:06:11 10° N 13:11:12 54° WNW 13:16:13 10° SW visible
04 Dec 13.3 00:29:33 10° SW 00:33:25 21° W 00:37:18 10° NW visible
04 Dec 13.4 10:56:08 10° NE 10:58:54 14° E 11:01:40 10° ESE visible
04 Dec 10.6 12:33:44 10° NNE 12:38:56 86° ESE 12:44:06 10° SSW visible
04 Dec 11.9 14:14:04 10° N 14:17:34 19° NW 14:21:04 10° W visible
05 Dec 11.5 12:01:31 10° NNE 12:06:30 48° E 12:11:30 10° S visible
05 Dec 11.3 13:41:07 10° N 13:45:35 31° WNW 13:50:03 10° WSW visible
06 Dec 13.9 01:07:09 10° W 01:08:31 11° W 01:09:54 10° WNW visible
06 Dec 12.5 11:29:35 10° NE 11:33:56 27° E 11:38:17 10° SSE visible
06 Dec 10.7 13:08:28 10° N 13:13:28 52° WNW 13:18:28 10° SW visible
07 Dec 13.4 00:31:56 10° SW 00:35:43 21° W 00:39:32 10° NW visible
07 Dec 13.3 10:58:18 10° NE 11:01:12 15° E 11:04:06 10° ESE visible
07 Dec 10.5 12:36:01 10° NNE 12:41:13 89° ESE 12:46:24 10° SSW visible
07 Dec 12.0 14:16:22 10° NNW 14:19:49 18° NW 14:23:16 10° W visible
07 Dec 12.4 23:58:21 10° SSW 00:03:04 37° W 00:07:49 10° NNW visible
08 Dec 11.4 12:03:46 10° NNE 12:08:48 50° E 12:13:48 10° S visible
08 Dec 11.4 13:43:25 10° N 13:47:51 30° WNW 13:52:17 10° WSW visible
